EN

Hourly Weather Cajazeiras

Today, 16 April, Friday

Time Temperature Precipitation Wind Pressure Humidity
00:00 +23°C° 0.5 mm 1 mps 733 mmHg 96%
01:00 +23°C° 0.3 mm 1 mps 733 mmHg 96%
02:00 +23°C° 0.3 mm 1 mps 732 mmHg 96%
03:00 +23°C° 0.3 mm 1 mps 732 mmHg 96%
04:00 +23°C° 0 mm 1 mps 732 mmHg 96%
05:00 +23°C° 0 mm 1 mps 732 mmHg 96%
06:00 +23°C° 0 mm 1 mps 733 mmHg 96%
07:00 +25°C° 0 mm 1 mps 733 mmHg 89%
08:00 +26°C° 0 mm 1 mps 734 mmHg 83%
09:00 +27°C° 0 mm 1 mps 734 mmHg 76%
10:00 +29°C° 0 mm 2 mps 734 mmHg 66%
11:00 +31°C° 0 mm 2 mps 733 mmHg 56%
12:00 +34°C° 0 mm 3 mps 733 mmHg 46%
13:00 +34°C° 0 mm 2 mps 732 mmHg 45%
14:00 +34°C° 0 mm 2 mps 731 mmHg 44%
15:00 +34°C° 0 mm 2 mps 731 mmHg 43%
16:00 +32°C° 0 mm 2 mps 731 mmHg 49%
17:00 +30°C° 0 mm 1 mps 731 mmHg 56%
18:00 +29°C° 0 mm 1 mps 731 mmHg 62%
19:00 +28°C° 0.2 mm 1 mps 732 mmHg 67%
20:00 +27°C° 0.2 mm 1 mps 732 mmHg 72%
21:00 +26°C° 0.2 mm 1 mps 733 mmHg 78%
22:00 +26°C° 0.1 mm 1 mps 733 mmHg 79%
23:00 +25°C° 0.1 mm 1 mps 733 mmHg 81%

Tomorrow, 17 April, Saturday

Time Temperature Precipitation Wind Pressure Humidity
00:00 +25°C° 0.1 mm 1 mps 733 mmHg 83%
01:00 +24°C° 0 mm 1 mps 732 mmHg 86%
02:00 +24°C° 0 mm 1 mps 732 mmHg 89%
03:00 +23°C° 0 mm 1 mps 732 mmHg 91%
04:00 +23°C° 0 mm 1 mps 732 mmHg 92%
05:00 +23°C° 0 mm 1 mps 733 mmHg 92%
06:00 +23°C° 0 mm 1 mps 733 mmHg 93%
07:00 +25°C° 0 mm 1 mps 734 mmHg 85%
08:00 +26°C° 0 mm 1 mps 734 mmHg 77%
09:00 +28°C° 0 mm 1 mps 735 mmHg 69%
10:00 +29°C° 0 mm 1 mps 734 mmHg 64%
11:00 +30°C° 0 mm 2 mps 733 mmHg 58%
12:00 +31°C° 0 mm 2 mps 733 mmHg 53%
13:00 +31°C° 0 mm 2 mps 732 mmHg 54%
14:00 +30°C° 0 mm 2 mps 732 mmHg 55%
15:00 +30°C° 0 mm 2 mps 731 mmHg 56%
16:00 +29°C° 0 mm 1 mps 731 mmHg 61%
17:00 +28°C° 0 mm 1 mps 731 mmHg 65%
18:00 +26°C° 0 mm 1 mps 731 mmHg 70%
19:00 +26°C° 0 mm 1 mps 732 mmHg 72%
20:00 +25°C° 0 mm 1 mps 732 mmHg 74%
21:00 +24°C° 0 mm 1 mps 733 mmHg 76%
22:00 +24°C° 0 mm 1 mps 733 mmHg 76%
23:00 +24°C° 0 mm 1 mps 733 mmHg 76%

Day after tomorrow, 18 April, Sunday

Time Temperature Precipitation Wind Pressure Humidity
00:00 +24°C° 0 mm 1 mps 733 mmHg 76%
01:00 +24°C° 0 mm 1 mps 733 mmHg 78%
02:00 +23°C° 0 mm 1 mps 732 mmHg 81%
03:00 +23°C° 0 mm 1 mps 732 mmHg 83%
04:00 +23°C° 0 mm 1 mps 733 mmHg 85%
05:00 +23°C° 0 mm 1 mps 733 mmHg 87%
06:00 +23°C° 0 mm 1 mps 733 mmHg 88%
07:00 +25°C° 0 mm 1 mps 734 mmHg 78%
08:00 +28°C° 0 mm 2 mps 734 mmHg 68%
09:00 +30°C° 0 mm 2 mps 734 mmHg 58%
10:00 +31°C° 0 mm 2 mps 734 mmHg 53%
11:00 +34°C° 0 mm 3 mps 733 mmHg 47%
12:00 +35°C° 0 mm 3 mps 733 mmHg 42%
13:00 +35°C° 0 mm 3 mps 732 mmHg 41%
14:00 +35°C° 0 mm 3 mps 732 mmHg 40%
15:00 +35°C° 0 mm 3 mps 731 mmHg 38%
16:00 +33°C° 0 mm 3 mps 731 mmHg 45%
17:00 +30°C° 0 mm 2 mps 731 mmHg 53%
18:00 +28°C° 0 mm 1 mps 731 mmHg 60%
19:00 +28°C° 0 mm 1 mps 732 mmHg 61%
20:00 +27°C° 0 mm 1 mps 733 mmHg 62%
21:00 +27°C° 0 mm 2 mps 733 mmHg 63%
22:00 +26°C° 0.1 mm 1 mps 733 mmHg 69%
23:00 +25°C° 0.1 mm 1 mps 733 mmHg 76%

19 April, Monday

Time Temperature Precipitation Wind Pressure Humidity
00:00 +24°C° 0.1 mm 1 mps 733 mmHg 83%
01:00 +24°C° 0.1 mm 1 mps 733 mmHg 84%
02:00 +24°C° 0.1 mm 1 mps 733 mmHg 85%
03:00 +22°C° 0.1 mm 0 mps 732 mmHg 86%
04:00 +24°C° 0 mm 1 mps 733 mmHg 86%
05:00 +24°C° 0 mm 1 mps 733 mmHg 86%
06:00 +24°C° 0 mm 1 mps 733 mmHg 87%
07:00 +26°C° 0 mm 1 mps 734 mmHg 78%
08:00 +28°C° 0 mm 2 mps 734 mmHg 69%
09:00 +30°C° 0 mm 3 mps 735 mmHg 60%
10:00 +31°C° 0 mm 3 mps 734 mmHg 55%
11:00 +33°C° 0 mm 3 mps 733 mmHg 49%
12:00 +35°C° 0 mm 4 mps 733 mmHg 43%
13:00 +34°C° 0 mm 3 mps 732 mmHg 46%
14:00 +34°C° 0 mm 3 mps 732 mmHg 48%
15:00 +32°C° 0 mm 2 mps 731 mmHg 51%
16:00 +31°C° 0 mm 2 mps 731 mmHg 54%
17:00 +30°C° 0 mm 1 mps 731 mmHg 58%
18:00 +28°C° 0 mm 1 mps 731 mmHg 62%
19:00 +27°C° 0.3 mm 1 mps 732 mmHg 69%
20:00 +26°C° 0.3 mm 1 mps 733 mmHg 76%
21:00 +25°C° 0.3 mm 1 mps 733 mmHg 83%
22:00 +24°C° 0.6 mm 1 mps 733 mmHg 87%
23:00 +24°C° 0.6 mm 1 mps 733 mmHg 91%

20 April, Tuesday

Time Temperature Precipitation Wind Pressure Humidity
00:00 +22°C° 0.6 mm 0 mps 733 mmHg 95%
01:00 +21°C° 0 mm 0 mps 733 mmHg 95%
02:00 +21°C° 0 mm 0 mps 733 mmHg 95%
03:00 +21°C° 0 mm 0 mps 733 mmHg 95%
04:00 +21°C° 0 mm 0 mps 733 mmHg 95%
05:00 +21°C° 0 mm 0 mps 733 mmHg 95%
06:00 +21°C° 0 mm 0 mps 734 mmHg 96%
07:00 +23°C° 0 mm 0 mps 734 mmHg 86%
08:00 +27°C° 0 mm 1 mps 735 mmHg 76%
09:00 +29°C° 0 mm 1 mps 735 mmHg 66%
10:00 +30°C° 0 mm 1 mps 735 mmHg 57%
11:00 +32°C° 0 mm 2 mps 734 mmHg 49%
12:00 +34°C° 0 mm 2 mps 733 mmHg 40%
13:00 +35°C° 0 mm 2 mps 733 mmHg 39%
14:00 +35°C° 0 mm 3 mps 732 mmHg 38%
15:00 +35°C° 0 mm 3 mps 731 mmHg 37%
16:00 +32°C° 0 mm 2 mps 732 mmHg 44%
17:00 +29°C° 0 mm 2 mps 732 mmHg 52%
18:00 +27°C° 0 mm 1 mps 732 mmHg 60%
19:00 +26°C° 0 mm 1 mps 732 mmHg 63%
20:00 +26°C° 0 mm 1 mps 733 mmHg 66%
21:00 +23°C° 0 mm 0 mps 733 mmHg 70%
22:00 +23°C° 0 mm 0 mps 733 mmHg 71%
23:00 +22°C° 0 mm 0 mps 733 mmHg 73%

21 April, Wednesday

Time Temperature Precipitation Wind Pressure Humidity
00:00 +24°C° 0 mm 1 mps 734 mmHg 75%
01:00 +22°C° 0 mm 0 mps 733 mmHg 79%
02:00 +21°C° 0 mm 0 mps 733 mmHg 83%
03:00 +21°C° 0 mm 0 mps 733 mmHg 87%
04:00 +21°C° 0 mm 0 mps 733 mmHg 88%
05:00 +21°C° 0 mm 0 mps 733 mmHg 89%
06:00 +21°C° 0 mm 0 mps 734 mmHg 90%
07:00 +23°C° 0 mm 0 mps 734 mmHg 80%
08:00 +28°C° 0 mm 1 mps 734 mmHg 71%
09:00 +30°C° 0 mm 1 mps 735 mmHg 62%
10:00 +31°C° 0.3 mm 1 mps 734 mmHg 61%
11:00 +31°C° 0.3 mm 2 mps 734 mmHg 60%
12:00 +32°C° 0.3 mm 2 mps 733 mmHg 59%
13:00 +32°C° 0.2 mm 2 mps 733 mmHg 56%
14:00 +32°C° 0.2 mm 2 mps 732 mmHg 54%
15:00 +34°C° 0.2 mm 2 mps 731 mmHg 51%
16:00 +31°C° 0 mm 2 mps 732 mmHg 58%
17:00 +29°C° 0 mm 1 mps 732 mmHg 65%
18:00 +27°C° 0 mm 1 mps 732 mmHg 72%
19:00 +27°C° 0 mm 1 mps 732 mmHg 75%
20:00 +26°C° 0 mm 1 mps 733 mmHg 77%
21:00 +26°C° 0 mm 1 mps 733 mmHg 79%
22:00 +25°C° 0 mm 1 mps 734 mmHg 82%
23:00 +24°C° 0 mm 1 mps 734 mmHg 85%
Show more

We Need Your Consent

Meteoprog and our Service Providers may store and access personal data such as cookies, device identifiers or other similar technologies on your device and process such data to personalise content and ads, as well as provide social media features and to analyse the traffic.

  • Store and/or access information on your device

    Cookies, device identifiers or other information can be stored or accessed on your device for the purposes indicated above.

  • Personalised ads and content, ad and content measurement, audience insights, and products development

    Ads and content can be personalised based on a profile. More data can be added to better personalise ads and content. Ad and content performance can be measured. Insights about the audience who saw the ads and content can be derived. Such data can be used to develop or improve user’s experience, systems and software.

By clicking ‘I Agree’ you will allow the use of indicated cookies, device identifiers, web beacons or other similar technologies. Your settings can be changed in the browser on your device.

For certain purposes, legitimate interests may be relied on, rather than consent. You can read more about this in our Privacy and Cookie Policy.